Location: Keewatin
(47.4004°N, 93.0827°W)
Time: 01:02:22
(UTC+00:00)

KKS-1 - Pass Details

Date: 01 March 2020
Orbit: 636 x 650 km, 98.3° (Epoch: 28 March)

Event Time Altitude Azimuth Distance (km) Brightness Sun altitude
Rises 02:31:35 0° 11° (N) 2,950 ? -26.6°
Reaches altitude 10° 02:33:48 10° 8° (N) 2,036 ? -27.0°
Enters shadow 02:36:44 40° 352° (N) 954 ? -27.5°
